カタログに戻る

ATLAS 5 CENTAUR R/B

運用中MEO
NORAD 40106·ROCKET BODY·🇺🇸 United States

打ち上げ Aug 2, 2014 から Cape Canaveral Space Force Station

Loading…

次のパス (今後24時間)

TLE

最新Source: Space-Track

元期: Sep 13, 2026, 03:07 UTC

1 40106U 14045B   26256.13037053  .00000009  00000-0  00000-0 0  9997
2 40106  55.3641 103.6616 0153723  29.4763 331.4703  1.90830629 84430

AllMySatでATLAS 5 CENTAUR R/Bをリアルタイム追跡

Download on the App Store